Overview Statistics Trail Chart Weather Telemetry Raw packets
 

This is the latest recevied weather packets stored in our database for station/object K4MUW-4. If no packets are shown the sender has not sent any weather packets the latest 10 day(s).

<< 1 2 3 4 5 >>
Time Temp. Humidity Pressure Rain* Wind** Luminosity Snow
1788653125 27.78° C 68% 1008 hPa 0 mm 0 m/s - -
1788652825 27.78° C 66% 1008 hPa 0 mm 0 m/s - -
1788652524 27.78° C 67% 1009 hPa 0 mm 0 m/s - -
1788652224 28.33° C 68% 1009 hPa 0 mm 0 m/s - -
1788651923 28.33° C 66% 1009 hPa 0 mm 0 m/s - -
1788651623 28.33° C 63% 1008 hPa 0 mm 0 m/s - -
1788651323 28.33° C 62% 1008 hPa 0 mm 0 m/s - -
1788651042 28.33° C 59% 1008 hPa 0 mm 0 m/s - -
1788650722 28.33° C 59% 1008 hPa 0 mm 0 m/s - -
1788650421 28.33° C 59% 1008 hPa 0 mm 0 m/s - -
1788650121 28.33° C 58% 1008 hPa 0 mm 0 m/s - -
1788649821 28.33° C 58% 1008 hPa 0 mm 0 m/s - -
1788649520 28.33° C 57% 1008 hPa 0 mm 0 m/s - -
1788649220 28.89° C 58% 1008 hPa 0 mm 0 m/s - -
1788648919 28.89° C 57% 1008 hPa 0 mm 0 m/s - -
1788648619 29.44° C 57% 1008 hPa 0 mm 0 m/s - -
1788648319 30° C 56% 1008 hPa 0 mm 0 m/s - -
1788648018 30.56° C 53% 1008 hPa 0 mm 0 m/s - -
1788647718 31.11° C 46% 1008 hPa 0 mm 0 m/s - -
1788647417 31.11° C 43% 1008 hPa 0 mm 0 m/s - -
1788647117 31.67° C 41% 1008 hPa 0 mm 0 m/s - -
1788646788 32.22° C 41% 1008 hPa 0 mm 0 m/s - -
1788646488 33.89° C 40% 1007 hPa 0 mm 0 m/s - -
1788646188 35° C 35% 1007 hPa 0 mm 1.34 m/s, 189° - -
1788645887 35.56° C 27% 1007 hPa 0 mm 0 m/s - -

* Rain latest hour (hover to see other rain measurements)
** Current wind speed in m/s (hover to see current wind gust speed)